Weather History for CYWG - November, 2012

Change the Weather History Date:

Thursday, November 1, 2012

  Actual Average Record
Temperature  
Mean Temperature 28 °F -  
Max Temperature 30 °F 38 °F 55 °F (1999)
Min Temperature 26 °F 23 °F 8 °F (1996)
Degree Days  
Heating Degree Days 37    
Moisture  
Dew Point 23 °F    
Average Humidity 77    
Maximum Humidity 86    
Minimum Humidity 67    
Precipitation  
Precipitation 0.00 in - - ()
Sea Level Pressure  
Sea Level Pressure 30.21 in    
Wind  
Wind Speed 13 mph ()    
Max Wind Speed 20 mph    
Max Gust Speed 26 mph    
Visibility 14.1 miles    
Events      
Averages and records for this station are not official NWS values.
T = Trace of Precipitation, MM = Missing Value Source: Averaged Metar Reports

Daily Weather History Graph

Daily Weather History Graph

Search for Another Location

Airport or City:

Trip Planner

Search our weather history database for the weather conditions in past years. The results will help you decide how hot, cold, wet, or windy it might be!

Date:

Astronomy

Nov. 01, 2012 Rise Set
Actual Time 8:19 AM CDT 6:04 PM CDT
Civil Twilight 7:45 AM CDT 6:38 PM CDT
Nautical Twilight 7:07 AM CDT 7:17 PM CDT
Astronomical Twilight 6:29 AM CDT 7:54 PM CDT
Moon 7:50 PM CDT (11/1) 11:05 AM CDT (11/1)
Length of Visible Light 10h 53m
Length of Day
9h 45m
Waning Gibbous, 93% of the Moon is Illuminated
Nov 1
Waning Gibbous
Nov 6
Last Quarter
Nov 13
New
Nov 20
First Quarter
Nov 28
Full

Hourly Weather History & Observations

Time (CDT) Temp. Windchill Dew Point Humidity Pressure Visibility Wind Dir Wind Speed Gust Speed Precip Events Conditions
12:00 AM 32.0 °F 20.5 °F 26.6 °F 80% 30.17 in 15.0 mi NNW 18.4 mph - N/A   Overcast
1:00 AM 31 °F - 26 °F 75% 30.18 in 9 mi Calm Calm - -   Overcast
1:00 AM 30.2 °F 18.5 °F 26.6 °F 86% 30.18 in 15.0 mi NW 17.3 mph - N/A   Overcast
2:00 AM 30.2 °F 18.5 °F 23.0 °F 75% 30.19 in 15.0 mi NNW 17.3 mph - N/A   Overcast
3:00 AM 30.2 °F 20.2 °F 23.0 °F 75% 30.19 in 15.0 mi North 12.7 mph 19.6 mph N/A   Overcast
4:00 AM 28.4 °F 17.0 °F 21.2 °F 74% 30.20 in 15.0 mi NNW 15.0 mph 23.0 mph N/A   Overcast
5:00 AM 28.4 °F 17.0 °F 21.2 °F 74% 30.21 in 15.0 mi North 15.0 mph 21.9 mph N/A   Overcast
6:00 AM 28.4 °F 16.6 °F 21.2 °F 74% 30.21 in 15.0 mi NNW 16.1 mph 24.2 mph N/A   Overcast
7:00 AM 28 °F - 22 °F 68% 30.22 in 9 mi Calm Calm - -   Overcast
7:00 AM 28.4 °F 16.6 °F 21.2 °F 74% 30.22 in 15.0 mi North 16.1 mph 25.3 mph N/A   Overcast
8:00 AM 26.6 °F 13.1 °F 21.2 °F 80% 30.22 in 15.0 mi North 19.6 mph 26.5 mph N/A   Overcast
9:00 AM 28.4 °F 17.5 °F 21.2 °F 74% 30.22 in 15.0 mi North 13.8 mph 20.7 mph N/A   Overcast
10:00 AM 28.4 °F 18.5 °F 21.2 °F 74% 30.23 in 15.0 mi NNW 11.5 mph - N/A   Overcast
11:00 AM 28.4 °F 17.0 °F 23.0 °F 80% 30.23 in 15.0 mi North 15.0 mph - N/A   Overcast
12:00 PM 28.4 °F 18.0 °F 23.0 °F 80% 30.23 in 15.0 mi NNW 12.7 mph - N/A   Overcast
1:00 PM 30 °F - 23 °F 67% 30.22 in 9 mi Calm Calm - -   Overcast
1:00 PM 30.2 °F 20.2 °F 23.0 °F 75% 30.22 in 15.0 mi North 12.7 mph - N/A   Overcast
2:00 PM 30.2 °F 20.8 °F 24.8 °F 80% 30.21 in 15.0 mi North 11.5 mph - N/A   Overcast
3:00 PM 30.2 °F 19.3 °F 23.0 °F 75% 30.21 in 15.0 mi NNE 15.0 mph - N/A   Overcast
4:00 PM 30.2 °F 19.8 °F 24.8 °F 80% 30.21 in 15.0 mi NNE 13.8 mph - N/A   Overcast
5:00 PM 28.4 °F 17.5 °F 23.0 °F 80% 30.22 in 15.0 mi NNE 13.8 mph - N/A   Overcast
6:00 PM 28.4 °F 19.1 °F 23.0 °F 80% 30.23 in 15.0 mi North 10.4 mph - N/A   Overcast
7:00 PM 28 °F - 23 °F 74% 30.24 in 9 mi Calm Calm - -   Overcast
7:00 PM 28.4 °F 19.1 °F 23.0 °F 80% 30.24 in 15.0 mi North 10.4 mph - N/A   Overcast
8:00 PM 28.4 °F 19.1 °F 23.0 °F 80% 30.22 in 15.0 mi North 10.4 mph - N/A   Overcast
9:00 PM 28.4 °F 20.4 °F 23.0 °F 80% 30.23 in 15.0 mi North 8.1 mph - N/A   Overcast
10:00 PM 28.4 °F 21.2 °F 23.0 °F 80% 30.22 in 15.0 mi NE 6.9 mph - N/A   Overcast
11:00 PM 28.4 °F 18.5 °F 23.0 °F 80% 30.22 in 15.0 mi ENE 11.5 mph - N/A   Overcast